| time (UTC) | temp F | wind direction | speed knots | gust knots | rain 1hr in | rain 24hr in | rain mn in | humidity % | barometer mb |
| 20260507094536 | 26 | 311 | 1.7 | 2.6 | 0.00 | 0.00 | 0.00 | 79 | 1008.1 |
| 20260507093034 | 27 | 310 | 0.0 | 1.7 | 0.00 | 0.00 | 0.00 | 80 | 1008.0 |
| 20260507091541 | 27 | 310 | 0.9 | 2.6 | 0.00 | 0.00 | 0.00 | 80 | 1008.0 |
| 20260507090036 | 28 | 310 | 0.0 | 1.7 | 0.00 | 0.00 | 0.00 | 78 | 1008.1 |
| 20260507084529 | 29 | 329 | 1.7 | 2.6 | 0.00 | 0.00 | 0.00 | 79 | 1008.2 |
| 20260507083031 | 30 | 332 | 1.7 | 3.5 | 0.00 | 0.00 | 0.00 | 73 | 1008.2 |
| 20260507081521 | 31 | 327 | 0.9 | 2.6 | 0.00 | 0.00 | 0.00 | 73 | 1008.3 |
| 20260507080022 | 32 | 53 | 0.0 | 0.0 | 0.00 | 0.00 | 0.00 | 72 | 1008.3 |
| 20260507074516 | 33 | 53 | 0.0 | 0.9 | 0.00 | 0.00 | 0.00 | 70 | 1008.2 |
| 20260507073013 | 34 | 53 | 0.9 | 2.6 | 0.00 | 0.00 | 0.00 | 69 | 1008.4 |
| 20260507071512 | 34 | 53 | 0.0 | 3.5 | 0.00 | 0.00 | 0.00 | 68 | 1008.5 |
| 20260507070012 | 36 | 71 | 3.5 | 4.3 | 0.00 | 0.00 | 0.00 | 65 | 1008.6 |
| 20260507064508 | 37 | 113 | 0.0 | 8.7 | 0.00 | 0.00 | 0.00 | 64 | 1008.4 |
| 20260507063006 | 36 | 26 | 2.6 | 4.3 | 0.00 | 0.00 | 0.00 | 64 | 1008.6 |
| 20260507061504 | 37 | 154 | 4.3 | 8.7 | 0.00 | 0.00 | 0.00 | 64 | 1008.4 |
| 20260507060004 | 37 | 151 | 7.8 | 12.2 | 0.00 | 0.00 | 0.00 | 63 | 1008.4 |
| 20260507054600 | 37 | 173 | 7.0 | 10.4 | 0.00 | 0.00 | 0.00 | 63 | 1008.5 |
| 20260507053111 | 38 | 150 | 7.0 | 9.6 | 0.00 | 0.00 | 0.00 | 61 | 1008.5 |
| 20260507051555 | 38 | 159 | 7.0 | 12.2 | 0.00 | 0.00 | 0.00 | 62 | 1008.7 |
| 20260507050053 | 39 | 139 | 7.8 | 11.3 | 0.00 | 0.00 | 0.00 | 61 | 1008.6 |
| 20260507044552 | 38 | 135 | 7.8 | 10.4 | 0.00 | 0.00 | 0.00 | 63 | 1008.8 |
| 20260507043050 | 37 | 142 | 6.1 | 8.7 | 0.00 | 0.00 | 0.00 | 64 | 1009.1 |
| 20260507041551 | 38 | 117 | 6.1 | 9.6 | 0.00 | 0.00 | 0.00 | 62 | 1009.3 |
| 20260507040053 | 38 | 109 | 4.3 | 6.1 | 0.00 | 0.00 | 0.00 | 61 | 1009.6 |
| 20260507034549 | 39 | 122 | 4.3 | 7.0 | 0.00 | 0.00 | 0.00 | 59 | 1009.8 |
| 20260507033050 | 40 | 105 | 5.2 | 7.8 | 0.00 | 0.00 | 0.00 | 57 | 1010.0 |
| 20260507031545 | 40 | 90 | 6.1 | 7.8 | 0.00 | 0.00 | 0.00 | 56 | 1009.9 |
| 20260507030045 | 39 | 90 | 4.3 | 6.1 | 0.00 | 0.00 | 0.00 | 58 | 1009.8 |
| 20260507024548 | 39 | 83 | 3.5 | 5.2 | 0.00 | 0.00 | 0.00 | 59 | 1010.0 |
| 20260507023049 | 39 | 86 | 2.6 | 4.3 | 0.00 | 0.00 | 0.00 | 56 | 1010.0 |
| 20260507021546 | 40 | 81 | 2.6 | 5.2 | 0.00 | 0.00 | 0.00 | 55 | 1009.8 |
| 20260507020104 | 41 | 78 | 3.5 | 4.3 | 0.00 | 0.00 | 0.00 | 54 | 1009.9 |
| 20260507014546 | 43 | 69 | 3.5 | 7.0 | 0.00 | 0.00 | 0.00 | 51 | 1009.9 |
| 20260507013051 | 44 | 69 | 2.6 | 4.3 | 0.00 | 0.00 | 0.00 | 50 | 1009.8 |
| 20260507011540 | 46 | 58 | 3.5 | 4.3 | 0.00 | 0.00 | 0.00 | 47 | 1009.8 |
| 20260507010039 | 46 | 54 | 3.5 | 5.2 | 0.00 | 0.00 | 0.00 | 46 | 1009.8 |
| 20260507004550 | 47 | 43 | 1.7 | 2.6 | 0.00 | 0.00 | 0.00 | 45 | 1009.9 |
| 20260507003043 | 48 | 5 | 3.5 | 7.8 | 0.00 | 0.00 | 0.00 | 41 | 1010.0 |
| 20260507001543 | 49 | 11 | 5.2 | 7.8 | 0.00 | 0.00 | 0.00 | 39 | 1010.0 |
| 20260507000036 | 50 | 23 | 7.0 | 11.3 | 0.00 | 0.00 | 0.00 | 37 | 1010.0 |
| 20260506234537 | 50 | 340 | 7.0 | 11.3 | 0.00 | 0.00 | 0.00 | 38 | 1010.2 |
| 20260506233033 | 51 | 11 | 7.0 | 10.4 | 0.00 | 0.00 | 0.00 | 38 | 1010.3 |
| 20260506231531 | 51 | 351 | 8.7 | 14.8 | 0.00 | 0.00 | 0.00 | 37 | 1010.4 |
| 20260506230029 | 50 | 285 | 4.3 | 11.3 | 0.00 | 0.00 | 0.00 | 38 | 1010.6 |
| 20260506224532 | 51 | 304 | 6.1 | 14.8 | 0.00 | 0.00 | 0.00 | 38 | 1010.6 |
| 20260506223036 | 50 | 5 | 8.7 | 13.9 | 0.00 | 0.00 | 0.00 | 38 | 1010.6 |
| 20260506221523 | 50 | 319 | 7.8 | 13.9 | 0.00 | 0.00 | 0.00 | 37 | 1011.0 |
| 20260506220024 | 50 | 313 | 10.4 | 15.6 | 0.00 | 0.00 | 0.00 | 40 | 1011.2 |
| 20260506214535 | 49 | 323 | 6.1 | 14.8 | 0.00 | 0.00 | 0.00 | 41 | 1011.3 |
| 20260506213021 | 49 | 323 | 7.8 | 16.5 | 0.00 | 0.00 | 0.00 | 39 | 1011.5 |
| 20260506211516 | 49 | 334 | 5.2 | 10.4 | 0.00 | 0.00 | 0.00 | 40 | 1011.7 |
| 20260506210116 | 49 | 314 | 11.3 | 14.8 | 0.00 | 0.00 | 0.00 | 40 | 1012.0 |
| 20260506204513 | 48 | 296 | 7.8 | 15.6 | 0.00 | 0.00 | 0.00 | 42 | 1012.1 |
| 20260506203012 | 49 | 309 | 11.3 | 15.6 | 0.00 | 0.00 | 0.00 | 39 | 1012.2 |
| 20260506201511 | 47 | 312 | 8.7 | 15.6 | 0.00 | 0.00 | 0.00 | 41 | 1012.5 |
| 20260506200007 | 47 | 304 | 8.7 | 15.6 | 0.00 | 0.00 | 0.00 | 42 | 1012.7 |
| 20260506194507 | 47 | 347 | 12.2 | 17.4 | 0.00 | 0.00 | 0.00 | 42 | 1012.8 |
| 20260506193005 | 49 | 281 | 10.4 | 18.2 | 0.00 | 0.00 | 0.00 | 42 | 1013.0 |
| 20260506191502 | 48 | 306 | 10.4 | 17.4 | 0.00 | 0.00 | 0.00 | 41 | 1013.0 |
| 20260506190006 | 46 | 261 | 9.6 | 19.1 | 0.00 | 0.00 | 0.00 | 43 | 1013.0 |
| 20260506184611 | 47 | 299 | 9.6 | 18.2 | 0.00 | 0.00 | 0.00 | 42 | 1013.2 |
| 20260506183105 | 46 | 276 | 9.6 | 18.2 | 0.00 | 0.00 | 0.00 | 45 | 1013.3 |
| 20260506181622 | 46 | 286 | 12.2 | 16.5 | 0.00 | 0.00 | 0.00 | 45 | 1013.5 |
| 20260506180058 | 45 | 304 | 9.6 | 15.6 | 0.00 | 0.00 | 0.00 | 45 | 1013.6 |
| 20260506174555 | 45 | 317 | 11.3 | 16.5 | 0.00 | 0.00 | 0.00 | 46 | 1013.9 |
| 20260506173101 | 44 | 321 | 10.4 | 15.6 | 0.00 | 0.00 | 0.00 | 46 | 1014.1 |
| 20260506171552 | 44 | 288 | 8.7 | 16.5 | 0.00 | 0.00 | 0.00 | 48 | 1014.1 |
| 20260506170055 | 43 | 292 | 12.2 | 16.5 | 0.00 | 0.00 | 0.00 | 47 | 1014.4 |
| 20260506164550 | 44 | 277 | 10.4 | 15.6 | 0.00 | 0.00 | 0.00 | 50 | 1014.4 |
| 20260506163050 | 43 | 277 | 9.6 | 15.6 | 0.00 | 0.00 | 0.00 | 49 | 1014.4 |
| 20260506161549 | 43 | 302 | 11.3 | 17.4 | 0.00 | 0.00 | 0.00 | 50 | 1014.5 |
| 20260506160052 | 42 | 295 | 9.6 | 14.8 | 0.00 | 0.00 | 0.00 | 51 | 1014.4 |
| 20260506154543 | 41 | 321 | 8.7 | 13.9 | 0.00 | 0.00 | 0.00 | 53 | 1014.6 |
| 20260506153105 | 41 | 360 | 8.7 | 15.6 | 0.00 | 0.00 | 0.00 | 53 | 1014.6 |
| 20260506151544 | 41 | 321 | 7.8 | 12.2 | 0.00 | 0.00 | 0.00 | 54 | 1014.5 |
| 20260506150046 | 40 | 292 | 8.7 | 13.0 | 0.00 | 0.00 | 0.00 | 55 | 1014.6 |
| 20260506144535 | 40 | 290 | 6.1 | 13.9 | 0.00 | 0.00 | 0.00 | 60 | 1014.6 |
| 20260506143034 | 40 | 291 | 6.1 | 10.4 | 0.00 | 0.00 | 0.00 | 61 | 1014.8 |
| 20260506141531 | 40 | 292 | 7.8 | 11.3 | 0.00 | 0.00 | 0.00 | 60 | 1014.8 |
| 20260506140029 | 39 | 282 | 6.1 | 9.6 | 0.00 | 0.00 | 0.00 | 62 | 1014.9 |
| 20260506134525 | 39 | 254 | 6.1 | 9.6 | 0.00 | 0.00 | 0.00 | 64 | 1014.8 |
| 20260506133022 | 38 | 256 | 6.1 | 8.7 | 0.00 | 0.00 | 0.00 | 68 | 1014.8 |
| 20260506131524 | 37 | 265 | 3.5 | 6.1 | 0.00 | 0.00 | 0.00 | 78 | 1014.6 |
| 20260506130014 | 35 | 284 | 3.5 | 5.2 | 0.00 | 0.00 | 0.00 | 83 | 1014.6 |
| 20260506124509 | 34 | 283 | 1.7 | 3.5 | 0.00 | 0.00 | 0.00 | 84 | 1014.5 |
| 20260506123005 | 33 | 294 | 2.6 | 3.5 | 0.00 | 0.00 | 0.00 | 84 | 1014.3 |
| 20260506121500 | 33 | 259 | 0.0 | 1.7 | 0.00 | 0.00 | 0.00 | 85 | 1014.2 |
| 20260506120058 | 32 | 259 | 0.9 | 1.7 | 0.00 | 0.00 | 0.00 | 85 | 1014.1 |
| 20260506114559 | 32 | 259 | 1.7 | 2.6 | 0.00 | 0.00 | 0.00 | 85 | 1013.8 |
| 20260506113052 | 32 | 259 | 1.7 | 2.6 | 0.00 | 0.00 | 0.00 | 85 | 1013.8 |
| 20260506111551 | 32 | 259 | 0.9 | 2.6 | 0.00 | 0.00 | 0.00 | 85 | 1013.7 |
| 20260506110049 | 32 | 259 | 1.7 | 2.6 | 0.00 | 0.00 | 0.00 | 85 | 1013.7 |
| 20260506104555 | 32 | 259 | 0.9 | 2.6 | 0.00 | 0.00 | 0.00 | 84 | 1013.6 |
| 20260506103054 | 32 | 259 | 1.7 | 3.5 | 0.00 | 0.00 | 0.00 | 84 | 1013.6 |
| 20260506101547 | 32 | 259 | 1.7 | 3.5 | 0.00 | 0.00 | 0.00 | 83 | 1013.6 |
| 20260506100046 | 32 | 254 | 1.7 | 3.5 | 0.00 | 0.00 | 0.00 | 83 | 1013.7 |